Location: La Brionne
(46.1728°N, 1.7849°E)
Time: 08:04:40
(UTC+00:00)

Lacrosse 5 rocket - Pass Details

Date: 16 June 2021
Orbit: 460 x 633 km, 57.0° (Epoch: 02 August)

Event Time Altitude Azimuth Distance (km) Brightness Sun altitude
Rises 20:48:05 0° 190° (S) 2,549 4.4 -8.7°
Reaches altitude 10° 20:50:45 10° 171° (S) 1,646 3.2 -9.1°
Maximum altitude 20:53:17 18° 127° (SE) 1,221 2.5 -9.3°
Drops below altitude 10° 20:55:48 10° 82° (E) 1,620 3.4 -9.6°
Sets 20:58:24 0° 63° (ENE) 2,490 4.5 -9.9°
